Location: McFarlands Corners
(41.4117°N, 81.3382°W)
Time: 21:27:42
(UTC+00:00)

SR - Pass Details

Date: 18 February 2026
Orbit: 573 x 848 km, 66.7° (Epoch: 6 March)

Event Time Altitude Azimuth Distance (km) Brightness Sun altitude
Rises 09:26:00 0° 199° (SSW) 2,763 - -32.4°
Reaches altitude 10° 09:28:12 10° 196° (SSW) 1,873 - -32.0°
Maximum altitude 09:32:19 61° 116° (ESE) 667 - -31.3°
Exits shadow 09:34:28 27° 45° (NE) 1,146 ? -30.9°
Drops below altitude 10° 09:36:36 10° 37° (NE) 1,956 ? -30.5°
Sets 09:38:57 0° 34° (NNE) 2,898 ? -30.1°
